Change the Weather History Date:

Monday, December 24, 2012

  Actual Average (KRIC) Record (KRIC)
Temperature  
Mean Temperature 42 °F 39 °F  
Max Temperature 50 °F 49 °F 71 °F (1988)
Min Temperature 33 °F 30 °F 6 °F (1983)
Degree Days  
Heating Degree Days 24 26  
Month to date heating degree days 559  
Since 1 July heating degree days 1235  
Cooling Degree Days 0 0  
Month to date cooling degree days 0  
Year to date cooling degree days 1548  
Moisture  
Dew Point 35 °F    
Average Humidity 78    
Maximum Humidity 93    
Minimum Humidity 39    
Precipitation  
Precipitation 0.03 in 0.11 in 2.35 in (1986)
Month to date precipitation 2.59  
Year to date precipitation 42.93  
Snow  
Snow 0.00 in 0.00 in 5.80 in (1966)
Month to date snowfall 1.5  
Since 1 July snowfall 1.7  
Snow Depth -    
Sea Level Pressure  
Sea Level Pressure 29.97 in    
Wind  
Wind Speed 2 mph (WSW)    
Max Wind Speed 9 mph    
Max Gust Speed -    
Visibility 10 miles    
Events Rain    
T = Trace of Precipitation, MM = Missing Value Source: NWS Daily Summary

Daily Weather History Graph

Daily Weather History Graph

Search for Another Location

Airport or City:

Trip Planner

Search our weather history database for the weather conditions in past years. The results will help you decide how hot, cold, wet, or windy it might be!

Date:

Astronomy

Dec. 24, 2012 Rise Set
Actual Time 7:21 AM EST 4:58 PM EST
Civil Twilight 6:52 AM EST 5:27 PM EST
Nautical Twilight 6:19 AM EST 6:00 PM EST
Astronomical Twilight 5:48 AM EST 6:31 PM EST
Moon 2:22 PM EST (12/24) 4:00 AM EST (12/24)
Length of Visible Light 10h 34m
Length of Day
9h 36m
Waxing Gibbous, 88% of the Moon is Illuminated
Dec 24
Waxing Gibbous
Dec 28
Full
Jan 4
Last Quarter
Jan 11
New
Jan 18
First Quarter

Hourly Weather History & Observations

Time (EST) Temp. Windchill Dew Point Humidity Pressure Visibility Wind Dir Wind Speed Gust Speed Precip Events Conditions
12:15 AM 44.6 °F 42.2 °F 21.2 °F 39% 30.00 in 10.0 mi SW 4.6 mph - N/A   Clear
12:35 AM 42.8 °F 41.1 °F 23.0 °F 46% 30.00 in 10.0 mi WSW 3.5 mph - N/A   Clear
12:55 AM 41.0 °F 38.0 °F 23.0 °F 49% 29.99 in 10.0 mi WSW 4.6 mph - N/A   Clear
1:15 AM 42.8 °F 40.1 °F 23.0 °F 46% 29.99 in 10.0 mi WSW 4.6 mph - N/A   Clear
1:35 AM 42.8 °F 40.1 °F 23.0 °F 46% 29.99 in 10.0 mi WSW 4.6 mph - N/A   Clear
1:55 AM 41.0 °F - 23.0 °F 49% 29.99 in 10.0 mi Calm Calm - N/A   Clear
2:15 AM 39.2 °F 37.0 °F 24.8 °F 56% 30.00 in 10.0 mi WSW 3.5 mph - N/A   Clear
2:35 AM 35.6 °F - 28.4 °F 75% 30.00 in 10.0 mi Calm Calm - N/A   Clear
2:55 AM 35.6 °F - 26.6 °F 70% 30.00 in 10.0 mi Calm Calm - N/A   Clear
3:15 AM 35.6 °F - 28.4 °F 75% 30.00 in 10.0 mi Calm Calm - N/A   Clear
3:35 AM 35.6 °F - 28.4 °F 75% 29.99 in 10.0 mi Calm Calm - N/A   Clear
3:55 AM 35.6 °F - 28.4 °F 75% 30.00 in 10.0 mi Calm Calm - N/A   Clear
4:15 AM 33.8 °F - 28.4 °F 81% 30.00 in 10.0 mi Calm Calm - N/A   Clear
4:35 AM 33.8 °F - 28.4 °F 81% 30.00 in 10.0 mi Calm Calm - N/A   Clear
4:55 AM 35.6 °F - 28.4 °F 75% 30.01 in 10.0 mi Calm Calm - N/A   Mostly Cloudy
5:15 AM 33.8 °F - 30.2 °F 87% 30.02 in 10.0 mi Calm Calm - N/A   Overcast
5:35 AM 35.6 °F - 28.4 °F 75% 30.02 in 10.0 mi Calm Calm - N/A   Mostly Cloudy
5:55 AM 35.6 °F - 28.4 °F 75% 30.02 in 10.0 mi Calm Calm - N/A   Overcast
6:15 AM 35.6 °F - 33.8 °F 93% 30.02 in 10.0 mi Calm Calm - N/A   Overcast
6:35 AM 37.4 °F - 33.8 °F 87% 30.03 in 10.0 mi Calm Calm - N/A   Overcast
6:55 AM 37.4 °F - 33.8 °F 87% 30.03 in 10.0 mi Calm Calm - N/A Rain Light Rain
7:15 AM 37.4 °F - 33.8 °F 87% 30.02 in 10.0 mi Calm Calm - N/A   Overcast
7:35 AM 37.4 °F - 33.8 °F 87% 30.03 in 10.0 mi Calm Calm - N/A   Overcast
7:55 AM 39.2 °F - 33.8 °F 81% 30.03 in 10.0 mi Calm Calm - N/A   Overcast
8:15 AM 39.2 °F - 33.8 °F 81% 30.04 in 10.0 mi Calm Calm - N/A   Overcast
8:35 AM 41.0 °F - 33.8 °F 76% 30.06 in 10.0 mi Calm Calm - N/A   Light Drizzle
8:55 AM 41.0 °F - 35.6 °F 81% 30.07 in 7.0 mi Calm Calm - N/A Rain Light Rain
9:15 AM 41.0 °F - 37.4 °F 87% 30.07 in 10.0 mi Calm Calm - 0.02 in Rain Light Rain
9:35 AM 41.0 °F 38.0 °F 37.4 °F 87% 30.04 in 10.0 mi North 4.6 mph - 0.02 in   Overcast
9:55 AM 41.0 °F - 37.4 °F 87% 30.07 in 10.0 mi Calm Calm - 0.03 in Rain Light Rain
10:15 AM 41.0 °F - 37.4 °F 87% 30.06 in 10.0 mi Calm Calm - N/A   Scattered Clouds
10:35 AM 42.8 °F - 37.4 °F 81% 30.06 in 10.0 mi Calm Calm - N/A Rain Light Rain
10:55 AM 42.8 °F - 37.4 °F 81% 30.06 in 10.0 mi Calm Calm - N/A Rain Light Rain
11:15 AM 42.8 °F - 39.2 °F 87% 30.06 in 10.0 mi Calm Calm - N/A Rain Light Rain
11:35 AM 42.8 °F - 37.4 °F 81% 30.04 in 10.0 mi Calm Calm - N/A   Scattered Clouds
11:55 AM 42.8 °F 41.1 °F 35.6 °F 76% 30.02 in 10.0 mi ENE 3.5 mph - N/A   Scattered Clouds
12:15 PM 42.8 °F 41.1 °F 37.4 °F 81% 30.01 in 10.0 mi ENE 3.5 mph - N/A   Clear
12:35 PM 42.8 °F 38.0 °F 37.4 °F 81% 29.97 in 10.0 mi East 8.1 mph - N/A   Clear
12:55 PM 42.8 °F 39.3 °F 37.4 °F 81% 29.96 in 10.0 mi NNE 5.8 mph - N/A   Scattered Clouds
1:15 PM 42.8 °F 37.5 °F 37.4 °F 81% 29.93 in 10.0 mi NNE 9.2 mph - N/A   Scattered Clouds
1:35 PM 42.8 °F 40.1 °F 37.4 °F 81% 29.95 in 10.0 mi North 4.6 mph - N/A   Scattered Clouds
1:55 PM 42.8 °F 41.1 °F 37.4 °F 81% 29.94 in 10.0 mi ENE 3.5 mph - N/A   Scattered Clouds
2:15 PM 44.6 °F - 37.4 °F 76% 29.96 in 10.0 mi Calm Calm - N/A   Scattered Clouds
2:35 PM 44.6 °F - 37.4 °F 76% 29.94 in 10.0 mi Calm Calm - N/A   Scattered Clouds
2:55 PM 44.6 °F 43.1 °F 37.4 °F 76% 29.94 in 10.0 mi East 3.5 mph - N/A   Scattered Clouds
3:15 PM 44.6 °F - 35.6 °F 71% 29.94 in 10.0 mi Calm Calm - N/A   Overcast
3:35 PM 44.6 °F - 37.4 °F 76% 29.94 in 10.0 mi Calm Calm - N/A   Overcast
3:55 PM 44.6 °F - 37.4 °F 76% 29.92 in 10.0 mi Calm Calm - N/A   Overcast
4:15 PM 44.6 °F - 37.4 °F 76% 29.92 in 10.0 mi Calm Calm - N/A   Overcast
4:35 PM 44.6 °F - 37.4 °F 76% 29.92 in 10.0 mi Calm Calm - N/A   Overcast
4:55 PM 44.6 °F - 37.4 °F 76% 29.90 in 10.0 mi Calm Calm - N/A Rain Light Rain
5:15 PM 44.6 °F - 37.4 °F 76% 29.91 in 10.0 mi Calm Calm - N/A   Overcast
5:35 PM 44.6 °F - 37.4 °F 76% 29.92 in 10.0 mi Calm Calm - N/A   Overcast
5:55 PM 44.6 °F - 39.2 °F 81% 29.93 in 10.0 mi Calm Calm - N/A   Overcast
6:15 PM 44.6 °F - 39.2 °F 81% 29.93 in 10.0 mi Calm Calm - N/A Rain Light Rain
6:35 PM 44.6 °F 42.2 °F 39.2 °F 81% 29.93 in 10.0 mi WSW 4.6 mph - N/A   Light Drizzle
6:55 PM 44.6 °F - 39.2 °F 81% 29.91 in 10.0 mi Calm Calm - N/A   Light Drizzle
7:15 PM 44.6 °F - 41.0 °F 87% 29.91 in 10.0 mi Calm Calm - N/A   Overcast
7:35 PM 44.6 °F - 41.0 °F 87% 29.90 in 10.0 mi Calm Calm - N/A   Overcast
7:55 PM 46.4 °F - 41.0 °F 81% 29.91 in 10.0 mi Calm Calm - N/A   Overcast
8:15 PM 46.4 °F - 42.8 °F 87% 29.91 in 10.0 mi Calm Calm - N/A   Overcast
8:35 PM 46.4 °F - 42.8 °F 87% 29.90 in 10.0 mi Calm Calm - N/A   Overcast
8:55 PM 46.4 °F - 42.8 °F 87% 29.90 in 10.0 mi Calm Calm - N/A   Overcast
9:15 PM 48.2 °F - 42.8 °F 82% 29.90 in 10.0 mi Calm Calm - N/A   Overcast
9:35 PM 46.4 °F - 42.8 °F 87% 29.90 in 10.0 mi Calm Calm - N/A   Overcast
9:55 PM 46.4 °F - 42.8 °F 87% 29.90 in 10.0 mi Calm Calm - N/A   Overcast
10:15 PM 48.2 °F - 42.8 °F 82% 29.90 in 10.0 mi SSW 3.5 mph - N/A   Overcast
10:35 PM 48.2 °F - 42.8 °F 82% 29.91 in 10.0 mi SSW 3.5 mph - N/A   Overcast
10:55 PM 48.2 °F - 44.6 °F 87% 29.91 in 10.0 mi WSW 6.9 mph - N/A   Overcast
11:15 PM 50.0 °F - 44.6 °F 82% 29.92 in 10.0 mi West 8.1 mph - N/A   Overcast
11:35 PM 50.0 °F - 44.6 °F 82% 29.92 in 10.0 mi WSW 6.9 mph - N/A   Overcast
11:55 PM 48.2 °F - 44.6 °F 87% 29.92 in 10.0 mi WSW 5.8 mph - N/A   Overcast